Montpelier, VT

4:33 AM EST on November 17, 2019 (GMT -0500)
Knapp State

Weather History for KMPV - October, 2019

Change the Weather History Date:

Wednesday, October 16, 2019

  Actual Average Record
Temperature  
Mean Temperature 42 °F 46 °F  
Max Temperature 55 °F 56 °F 81 °F (1956)
Min Temperature 28 °F 35 °F 22 °F (1950)
Degree Days  
Heating Degree Days 23 20  
Month to date heating degree days 264 270  
Since 1 July heating degree days 574 625  
Cooling Degree Days 0 0  
Month to date cooling degree days 0 0  
Year to date cooling degree days 220 263  
Moisture  
Dew Point 36 °F    
Average Humidity 81    
Maximum Humidity 97    
Minimum Humidity 52    
Precipitation  
Precipitation 0.21 in 0.11 in 0.82 in (2002)
Month to date precipitation 2.81 1.88  
Year to date precipitation 40.42 29.80  
Sea Level Pressure  
Sea Level Pressure 29.91 in    
Wind  
Wind Speed 5 mph ()    
Max Wind Speed 25 mph    
Max Gust Speed 34 mph    
Visibility 9.2 miles    
Events Rain    
T = Trace of Precipitation, MM = Missing Value Source: Averaged Metar Reports

Daily Weather History Graph

Daily Weather History Graph

Search for Another Location

Airport or City:

Astronomy

Oct. 16, 2019 Rise Set
Actual Time 7:05 AM EDT 6:04 PM EDT
Civil Twilight 6:36 AM EDT 6:34 PM EDT
Nautical Twilight 6:03 AM EDT 7:07 PM EDT
Astronomical Twilight 5:29 AM EDT 7:41 PM EDT
Moon 7:51 PM EDT (10/16) 9:37 AM EDT (10/16)
Length of Visible Light 11h 57m
Length of Day
10h 58m
Waning Gibbous, 93% of the Moon is Illuminated
Oct 16
Waning Gibbous
Oct 21
Last Quarter
Oct 27
New
Nov 4
First Quarter
Nov 12
Full

Hourly Weather History & Observations

Time (EDT) Temp. Windchill Dew Point Humidity Pressure Visibility Wind Dir Wind Speed Gust Speed Precip Events Conditions
12:51 AM 33.1 °F - 32.0 °F 96% 30.11 in 10.0 mi Calm Calm - N/A   Clear
1:51 AM 32.0 °F - 30.9 °F 96% 30.11 in 10.0 mi Calm Calm - N/A   Clear
2:51 AM 33.1 °F - 32.0 °F 96% 30.10 in 3.0 mi Calm Calm - N/A   Scattered Clouds
3:04 AM 32.0 °F 28.7 °F 30.0 °F 92% 30.07 in 10.0 mi SE 3.5 mph - N/A   Mostly Cloudy
3:13 AM 30.9 °F 25.2 °F 28.9 °F 92% 30.07 in 10.0 mi SSE 5.8 mph - N/A   Partly Cloudy
3:51 AM 30.9 °F - 30.0 °F 96% 30.09 in 10.0 mi Calm Calm - N/A   Clear
4:24 AM 32.0 °F - 28.9 °F 88% 30.06 in 10.0 mi Calm Calm - N/A   Partly Cloudy
4:51 AM 30.9 °F - 28.9 °F 92% 30.09 in 7.0 mi Calm Calm - N/A   Partly Cloudy
5:51 AM 30.0 °F 26.5 °F 28.9 °F 96% 30.08 in 10.0 mi South 3.5 mph - N/A   Clear
6:18 AM 30.0 °F - 28.9 °F 96% 30.04 in 1.8 mi Calm Calm - N/A   Clear
6:25 AM 28.9 °F - 28.0 °F 96% 30.04 in 3.0 mi Calm Calm - N/A   Clear
6:51 AM 28.9 °F 23.9 °F 27.0 °F 92% 30.07 in 10.0 mi South 4.6 mph - N/A   Clear
7:51 AM 32.0 °F 28.7 °F 30.0 °F 92% 30.05 in 10.0 mi WNW 3.5 mph - N/A   Clear
8:51 AM 36.0 °F 33.3 °F 35.1 °F 97% 30.03 in 10.0 mi NW 3.5 mph - N/A   Clear
9:51 AM 48.0 °F - 39.0 °F 71% 29.99 in 10.0 mi South 12.7 mph 19.6 mph N/A   Clear
10:51 AM 51.1 °F - 39.9 °F 66% 29.97 in 10.0 mi South 13.8 mph 23.0 mph N/A   Clear
11:51 AM 54.0 °F - 39.0 °F 57% 29.94 in 10.0 mi South 15.0 mph 34.5 mph N/A   Clear
12:51 PM 55.0 °F - 37.9 °F 53% 29.92 in 10.0 mi SSE 20.7 mph 29.9 mph N/A   Clear
1:51 PM 55.9 °F - 39.0 °F 53% 29.89 in 10.0 mi South 16.1 mph 28.8 mph N/A   Clear
2:51 PM 55.0 °F - 39.0 °F 55% 29.86 in 10.0 mi South 20.7 mph 27.6 mph N/A   Clear
3:51 PM 55.0 °F - 39.0 °F 55% 29.86 in 10.0 mi SSE 18.4 mph 27.6 mph N/A   Partly Cloudy
4:51 PM 54.0 °F - 39.9 °F 59% 29.83 in 10.0 mi SE 12.7 mph 20.7 mph N/A   Clear
5:51 PM 53.1 °F - 41.0 °F 64% 29.80 in 10.0 mi SE 11.5 mph 23.0 mph N/A   Mostly Cloudy
6:51 PM 51.1 °F - 39.0 °F 63% 29.78 in 10.0 mi SE 11.5 mph 19.6 mph N/A   Overcast
7:51 PM 51.1 °F - 39.0 °F 63% 29.74 in 10.0 mi SE 13.8 mph 29.9 mph N/A   Overcast
8:24 PM 48.9 °F - 42.1 °F 77% 29.70 in 10.0 mi SSE 12.7 mph 25.3 mph 0.00 in Rain Light Rain
8:48 PM 48.2 °F - 42.8 °F 82% 29.68 in 10.0 mi ESE 11.5 mph - 0.01 in Rain Light Rain
8:51 PM 48.0 °F - 42.1 °F 80% 29.71 in 10.0 mi ESE 9.2 mph - 0.01 in Rain Light Rain
9:51 PM 46.9 °F - 44.1 °F 90% 29.66 in 10.0 mi SE 10.4 mph - 0.03 in Rain Light Rain
10:28 PM 46.9 °F - 44.1 °F 90% 29.61 in 10.0 mi ESE 9.2 mph - 0.00 in Rain Light Rain
10:51 PM 46.9 °F - 44.1 °F 90% 29.60 in 10.0 mi ENE 4.6 mph - 0.01 in Rain Light Rain
11:51 PM 46.0 °F 41.4 °F 45.0 °F 96% 29.51 in 9.0 mi NE 9.2 mph - 0.04 in Rain Light Rain